Location: Kosice
(0.0000°N, 21.2500°E)
Time: 05:21:41
(UTC+01:00)

NATO 3D Rocket - Pass Details

Date: 24 January 2021
Orbit: 670 x 2296 km, 21.5° (Epoch: 04 March)

Event Time Altitude Azimuth Distance (km) Brightness Sun altitude
Rises 19:01:11 0° 253° (WSW) 3,045 8.4 -17.4°
Reaches altitude 10° 19:03:34 10° 256° (WSW) 2,088 7.0 -18.0°
Maximum altitude 19:08:12 64° 338° (NNW) 753 3.4 -19.1°
Enters shadow 19:09:58 37° 44° (NE) 1,077 3.8 -19.5°
